Weather in Bazhenovo

Russia / Omsk Oblast     55°38′08″N   73°05′57″E
temp.,
°C
wind,
m/s
gust,
m/s
humid.,
%
clouds,
%
prec.,
mm/h
press.,
hPa
HPBL,
m
16 may, sun
sun1600:00+16s3370100 0.6 101634
03:00+16sw4116899 0.0 1015191
06:00+15sw357733 0.4 101488
09:00+21wnw51155100 0.0 1014351
12:00+26nw81138100 0.0 10141635
15:00+27nw81334100 0.0 10142687
18:00+25nnw584369 0.0 1015526
21:00+19n4671100 1.0 101684
17 may, mon
mon1700:00+16w1182100 4.6 101611
03:00+15wnw1183100 0.0 101711
06:00+15wsw228596 0.0 101717
09:00+22sw59595 0.0 1016484
12:00+28w57375 0.0 1015880
15:00+30wnw711245 0.0 10143631
18:00+30w511282 0.0 10133206
21:00+23w514476 0.0 1011255
18 may, tue
tue1800:00+19w48517 0.0 1011106
03:00+17wnw34635 0.1 101158
06:00+16wnw5127059 0.1 1011245
09:00+21nw475656 0.0 1011469
12:00+25wnw5743100 0.0 10101447
15:00+27wsw6113197 0.0 10073628
18:00+18ssw4575100 4.1 1009308
21:00+16wnw4885100 0.6 1009184
19 may, wed
wed1900:00+14nnw599358 0.8 1009382
03:00+11nne81392100 2.0 1011657
06:00+9nne81288100 3.4 1014829
09:00+11nne8117434 0.0 1016989
12:00+15nne89475 0.0 10181785
15:00+16n8103971 0.0 10182302
18:00+15n7104390 0.0 10192195
21:00+11n612462 0.0 1021464
20 may, thu
thu2000:00+8n51151100 0.0 1023300
03:00+5n3758100 0.0 1024135
06:00+5nne2359100 0.0 1026134
09:00+9nnw22425 0.0 1026733
12:00+13nw35345 0.0 10251332
15:00+15nw463790 0.0 10241482
18:00+18w474029 0.0 10221657
21:00+14sw466496 0.0 102081